STARLINK-34289, 64225

Orbit data source: Space-Track

STARLINK-34289, 64225 is a payload satellite owned by SpaceX/Seattle (US) in LEO that was launched on Sat, 31 May 2025 UTC via an FALCON 9 launch vehicle from the Air Force Western Test Range (AFWTR). Payload-class satellites include a variety of spacecraft equipped with specific instruments for various scientific and technological missions. These include communications satellites like Starlink; space stations such as the ISS; scientific satellites like the Hubble; Earth observation satellites from companies like Planet Labs, Umbra, and HawkEye 360; GPS; miniature CubeSats for education and research; and military/defense satellites.

Loading next visibility...
Identifier
64225, 2025-117Y
Orbit
LEO
Country
Flag of USUS
Related business
Manufacturer
SpaceX/Seattle
Mission
Operational Commercial Communications
Bus & Motor
STARLINK V2MO, Unknown motor
Mass
575 kg wet, ~530 kg dry
Launch date (UTC)
2025-05-31 (1 year ago)
Launch vehicle
FALCON 9
Launch site
Air Force Western Test Range (AFWTR)
Object type
Payload
Rocket body
Debris
Shape & HBR
Box + 2 Pan, 17.7 m
Radar Cross Section
36.964 m², Large (>1 m²)

Expand to show TLE details & history
Last TLE update: 1 day ago

TLE from 1 day ago
0 STARLINK-34289
1 64225U 25117Y   26170.72193390  .00025482  00000-0  76260-3 0  9990
2 64225  53.1603 285.2242 0001275  81.9083 278.2064 15.34405519 60189
Epoch: 2026-06-19T17:19Z
TLE epoch observation values (Epoch: 2026-06-19T17:19:35.088Z)
Latitude
-0.00006°
Longitude
117.38112°
Altitude
463.464 km
Speed
7.636 km/s
True Right ascension
19h 00m 53s
True Declination
0° 00' 00"
Sunlit
Object was in full shadow at epoch
Visualization orbit readout
Latitude
Unknown
Longitude
Unknown
Altitude
Unknown
Speed
Unknown
Apparent Right ascension
Unknown
Apparent Declination
Unknown
Sunlit
N/A
Visualization observer readout
Local Sidereal Time
08:42:12
Azimuth
Unknown
Elevation
Unknown
Doppler factor
Unknown
Orbital elements
Apogee altitude
463.816 km
Perigee altitude
462.071 km
Semi-major axis
6,841.081 km
Eccentricity
0.00013
Inclination
53.1603°
RAAN
285.2242°
Arg. of periapsis
81.9083°
True anomaly
278.19194°
Mean anomaly
278.2064°
Eccentric anomaly
278.19917°
Mean motion
3.8358 °/min
Orbital period
93.85 mins
BSTAR
0.0007626
Loading maneuver chart data...
Computing Atmospheric mass density...
Loading historical data...
Loading historical data...
Loading historical data...
Loading historical data...
Loading historical data...
Loading historical data...
Loading historical data...

Documentation

Showing up to 5 results
|